Year,Month,Day,Hour,Minute,Value (Times are PST for temperature in C)
2022,10,04,00,00,12.00
2022,10,04,00,01,11.90
2022,10,04,00,02,11.90
2022,10,04,00,03,11.90
2022,10,04,00,04,11.90
2022,10,04,00,05,11.80
2022,10,04,00,06,11.80
2022,10,04,00,07,11.80
2022,10,04,00,08,11.80
2022,10,04,00,09,11.70
2022,10,04,00,10,11.70
2022,10,04,00,11,11.70
2022,10,04,00,12,11.70
2022,10,04,00,13,11.70
2022,10,04,00,14,11.70
2022,10,04,00,15,11.70
2022,10,04,00,16,11.70
2022,10,04,00,17,11.60
2022,10,04,00,18,11.60
2022,10,04,00,19,11.60
2022,10,04,00,20,11.60
2022,10,04,00,21,11.60
2022,10,04,00,22,11.50
2022,10,04,00,23,11.50
2022,10,04,00,24,11.50
2022,10,04,00,25,11.50
2022,10,04,00,26,11.50
2022,10,04,00,27,11.40
2022,10,04,00,28,11.40
2022,10,04,00,29,11.40
2022,10,04,00,30,11.40
2022,10,04,00,31,11.40
2022,10,04,00,32,11.40
2022,10,04,00,33,11.40
2022,10,04,00,34,11.40
2022,10,04,00,35,11.40
2022,10,04,00,36,11.40
2022,10,04,00,37,11.40
2022,10,04,00,38,11.40
2022,10,04,00,39,11.40
2022,10,04,00,40,11.40
2022,10,04,00,41,11.30
2022,10,04,00,42,11.30
2022,10,04,00,43,11.30
2022,10,04,00,44,11.30
2022,10,04,00,45,11.30
2022,10,04,00,46,11.30
2022,10,04,00,47,11.20
2022,10,04,00,48,11.20
2022,10,04,00,49,11.20
2022,10,04,00,50,11.20
2022,10,04,00,51,11.20
2022,10,04,00,52,11.10
2022,10,04,00,53,11.10
2022,10,04,00,54,11.10
2022,10,04,00,55,11.10
2022,10,04,00,56,11.10
2022,10,04,00,57,11.10
2022,10,04,00,58,11.00
2022,10,04,00,59,11.00
2022,10,04,01,00,11.00
2022,10,04,01,01,11.00
2022,10,04,01,02,10.90
2022,10,04,01,03,10.90
2022,10,04,01,04,10.90
2022,10,04,01,05,10.90
2022,10,04,01,06,10.90
2022,10,04,01,07,10.90
2022,10,04,01,08,10.80
2022,10,04,01,09,10.80
2022,10,04,01,10,10.80
2022,10,04,01,11,10.80
2022,10,04,01,12,10.80
2022,10,04,01,13,10.80
2022,10,04,01,14,10.80
2022,10,04,01,15,10.80
2022,10,04,01,16,10.80
2022,10,04,01,17,10.80
2022,10,04,01,18,10.80
2022,10,04,01,19,10.80
2022,10,04,01,20,10.80
2022,10,04,01,21,10.80
2022,10,04,01,22,10.80
2022,10,04,01,23,10.70
2022,10,04,01,24,10.70
2022,10,04,01,25,10.70
2022,10,04,01,26,10.70
2022,10,04,01,27,10.70
2022,10,04,01,28,10.70
2022,10,04,01,29,10.70
2022,10,04,01,30,10.70
2022,10,04,01,31,10.70
2022,10,04,01,32,10.70
2022,10,04,01,33,10.70
2022,10,04,01,34,10.70
2022,10,04,01,35,10.70
2022,10,04,01,36,10.70
2022,10,04,01,37,10.70
2022,10,04,01,38,10.70
2022,10,04,01,39,10.70
2022,10,04,01,40,10.70
2022,10,04,01,41,10.70
2022,10,04,01,42,10.70
2022,10,04,01,43,10.60
2022,10,04,01,44,10.60
2022,10,04,01,45,10.60
2022,10,04,01,46,10.60
2022,10,04,01,47,10.60
2022,10,04,01,48,10.50
2022,10,04,01,49,10.50
2022,10,04,01,50,10.50
2022,10,04,01,51,10.60
2022,10,04,01,52,10.50
2022,10,04,01,53,10.50
2022,10,04,01,54,10.50
2022,10,04,01,55,10.50
2022,10,04,01,56,10.50
2022,10,04,01,57,10.50
2022,10,04,01,58,10.50
2022,10,04,01,59,10.40
2022,10,04,02,00,10.40
2022,10,04,02,01,10.40
2022,10,04,02,02,10.40
2022,10,04,02,03,10.40
2022,10,04,02,04,10.40
2022,10,04,02,05,10.30
2022,10,04,02,06,10.30
2022,10,04,02,07,10.30
2022,10,04,02,08,10.30
2022,10,04,02,09,10.20
2022,10,04,02,10,10.20
2022,10,04,02,11,10.20
2022,10,04,02,12,10.20
2022,10,04,02,13,10.20
2022,10,04,02,14,10.20
2022,10,04,02,15,10.20
2022,10,04,02,16,10.20
2022,10,04,02,17,10.20
2022,10,04,02,18,10.20
2022,10,04,02,19,10.20
2022,10,04,02,20,10.20
2022,10,04,02,21,10.20
2022,10,04,02,22,10.20
2022,10,04,02,23,10.10
2022,10,04,02,24,10.10
2022,10,04,02,25,10.10
2022,10,04,02,26,10.10
2022,10,04,02,27,10.10
2022,10,04,02,28,10.10
2022,10,04,02,29,10.10
2022,10,04,02,30,10.00
2022,10,04,02,31,10.00
2022,10,04,02,32,10.10
2022,10,04,02,33,10.10
2022,10,04,02,34,10.20
2022,10,04,02,35,10.20
2022,10,04,02,36,10.30
2022,10,04,02,37,10.40
2022,10,04,02,38,10.40
2022,10,04,02,39,10.40
2022,10,04,02,40,10.40
2022,10,04,02,41,10.40
2022,10,04,02,42,10.40
2022,10,04,02,43,10.40
2022,10,04,02,44,10.40
2022,10,04,02,45,10.40
2022,10,04,02,46,10.40
2022,10,04,02,47,10.50
2022,10,04,02,48,10.40
2022,10,04,02,49,10.40
2022,10,04,02,50,10.40
2022,10,04,02,51,10.40
2022,10,04,02,52,10.40
2022,10,04,02,53,10.40
2022,10,04,02,54,10.40
2022,10,04,02,55,10.30
2022,10,04,02,56,10.30
2022,10,04,02,57,10.30
2022,10,04,02,58,10.30
2022,10,04,02,59,10.30
2022,10,04,03,00,10.30
2022,10,04,03,01,10.30
2022,10,04,03,02,10.30
2022,10,04,03,03,10.30
2022,10,04,03,04,10.30
2022,10,04,03,05,10.30
2022,10,04,03,06,10.30
2022,10,04,03,07,10.40
2022,10,04,03,08,10.40
2022,10,04,03,09,10.40
2022,10,04,03,10,10.40
2022,10,04,03,11,10.40
2022,10,04,03,12,10.40
2022,10,04,03,13,10.40
2022,10,04,03,14,10.40
2022,10,04,03,15,10.40
2022,10,04,03,16,10.40
2022,10,04,03,17,10.40
2022,10,04,03,18,10.40
2022,10,04,03,19,10.40
2022,10,04,03,20,10.40
2022,10,04,03,21,10.40
2022,10,04,03,22,10.40
2022,10,04,03,23,10.40
2022,10,04,03,24,10.40
2022,10,04,03,25,10.40
2022,10,04,03,26,10.40
2022,10,04,03,27,10.40
2022,10,04,03,28,10.40
2022,10,04,03,29,10.40
2022,10,04,03,30,10.40
2022,10,04,03,31,10.40
2022,10,04,03,32,10.40
2022,10,04,03,33,10.40
2022,10,04,03,34,10.40
2022,10,04,03,35,10.40
2022,10,04,03,36,10.40
2022,10,04,03,37,10.30
2022,10,04,03,38,10.30
2022,10,04,03,39,10.30
2022,10,04,03,40,10.30
2022,10,04,03,41,10.30
2022,10,04,03,42,10.20
2022,10,04,03,43,10.20
2022,10,04,03,44,10.20
2022,10,04,03,45,10.10
2022,10,04,03,46,10.20
2022,10,04,03,47,10.10
2022,10,04,03,48,10.20
2022,10,04,03,49,10.10
2022,10,04,03,50,10.10
2022,10,04,03,51,10.10
2022,10,04,03,52,10.10
2022,10,04,03,53,10.10
2022,10,04,03,54,10.10
2022,10,04,03,55,10.10
2022,10,04,03,56,10.00
2022,10,04,03,57,10.00
2022,10,04,03,58,10.00
2022,10,04,03,59,10.00
2022,10,04,04,00,10.00
2022,10,04,04,01,10.00
2022,10,04,04,02,10.00
2022,10,04,04,03,10.00
2022,10,04,04,04,9.90
2022,10,04,04,05,9.90
2022,10,04,04,06,9.90
2022,10,04,04,07,9.90
2022,10,04,04,08,9.80
2022,10,04,04,09,9.80
2022,10,04,04,10,9.80
2022,10,04,04,11,9.90
2022,10,04,04,12,9.90
2022,10,04,04,13,9.90
2022,10,04,04,14,9.90
2022,10,04,04,15,9.80
2022,10,04,04,16,9.80
2022,10,04,04,17,9.80
2022,10,04,04,18,9.80
2022,10,04,04,19,9.80
2022,10,04,04,20,9.80
2022,10,04,04,21,9.80
2022,10,04,04,22,9.80
2022,10,04,04,23,9.80
2022,10,04,04,24,9.80
2022,10,04,04,25,9.70
2022,10,04,04,26,9.70
2022,10,04,04,27,9.70
2022,10,04,04,28,9.70
2022,10,04,04,29,9.70
2022,10,04,04,30,9.70
2022,10,04,04,31,9.70
2022,10,04,04,32,9.70
2022,10,04,04,33,9.70
2022,10,04,04,34,9.70
2022,10,04,04,35,9.70
2022,10,04,04,36,9.70
2022,10,04,04,37,9.60
2022,10,04,04,38,9.60
2022,10,04,04,39,9.60
2022,10,04,04,40,9.60
2022,10,04,04,41,9.60
2022,10,04,04,42,9.50
2022,10,04,04,43,9.50
2022,10,04,04,44,9.50
2022,10,04,04,45,9.60
2022,10,04,04,46,9.60
2022,10,04,04,47,9.60
2022,10,04,04,48,9.60
2022,10,04,04,49,9.60
2022,10,04,04,50,9.60
2022,10,04,04,51,9.60
2022,10,04,04,52,9.60
2022,10,04,04,53,9.70
2022,10,04,04,54,9.70
2022,10,04,04,55,9.70
2022,10,04,04,56,9.70
2022,10,04,04,57,9.70
2022,10,04,04,58,9.70
2022,10,04,04,59,9.70
2022,10,04,05,00,9.70
2022,10,04,05,01,9.70
2022,10,04,05,02,9.70
2022,10,04,05,03,9.70
2022,10,04,05,04,9.70
2022,10,04,05,05,9.70
2022,10,04,05,06,9.70
2022,10,04,05,07,9.70
2022,10,04,05,08,9.70
2022,10,04,05,09,9.70
2022,10,04,05,10,9.70
2022,10,04,05,11,9.60
2022,10,04,05,12,9.60
2022,10,04,05,13,9.60
2022,10,04,05,14,9.60
2022,10,04,05,15,9.50
2022,10,04,05,16,9.50
2022,10,04,05,17,9.40
2022,10,04,05,18,9.40
2022,10,04,05,19,9.40
2022,10,04,05,20,9.40
2022,10,04,05,21,9.40
2022,10,04,05,22,9.30
2022,10,04,05,23,9.30
2022,10,04,05,24,9.30
2022,10,04,05,25,9.30
2022,10,04,05,26,9.30
2022,10,04,05,27,9.30
2022,10,04,05,28,9.40
2022,10,04,05,29,9.40
2022,10,04,05,30,9.50
2022,10,04,05,31,9.50
2022,10,04,05,32,9.50
2022,10,04,05,33,9.50
2022,10,04,05,34,9.50
2022,10,04,05,35,9.50
2022,10,04,05,36,9.60
2022,10,04,05,37,9.60
2022,10,04,05,38,9.60
2022,10,04,05,39,9.60
2022,10,04,05,40,9.60
2022,10,04,05,41,9.70
2022,10,04,05,42,9.70
2022,10,04,05,43,9.70
2022,10,04,05,44,9.70
2022,10,04,05,45,9.70
2022,10,04,05,46,9.70
2022,10,04,05,47,9.70
2022,10,04,05,48,9.70
2022,10,04,05,49,9.70
2022,10,04,05,50,9.70
2022,10,04,05,51,9.70
2022,10,04,05,52,9.70
2022,10,04,05,53,9.70
2022,10,04,05,54,9.70
2022,10,04,05,55,9.70
2022,10,04,05,56,9.70
2022,10,04,05,57,9.70
2022,10,04,05,58,9.60
2022,10,04,05,59,9.60
2022,10,04,06,00,9.60
2022,10,04,06,01,9.60
2022,10,04,06,02,9.60
2022,10,04,06,03,9.60
2022,10,04,06,04,9.60
2022,10,04,06,05,9.60
2022,10,04,06,06,9.60
2022,10,04,06,07,9.60
2022,10,04,06,08,9.50
2022,10,04,06,09,9.50
2022,10,04,06,10,9.50
2022,10,04,06,11,9.60
2022,10,04,06,12,9.60
2022,10,04,06,13,9.60
2022,10,04,06,14,9.60
2022,10,04,06,15,9.60
2022,10,04,06,16,9.70
2022,10,04,06,17,9.70
2022,10,04,06,18,9.70
2022,10,04,06,19,9.70
2022,10,04,06,20,9.70
2022,10,04,06,21,9.80
2022,10,04,06,22,9.80
2022,10,04,06,23,9.80
2022,10,04,06,24,9.80
2022,10,04,06,25,9.80
2022,10,04,06,26,9.80
2022,10,04,06,27,9.80
2022,10,04,06,28,9.80
2022,10,04,06,29,9.80
2022,10,04,06,30,9.80
2022,10,04,06,31,9.80
2022,10,04,06,32,9.80
2022,10,04,06,33,9.80
2022,10,04,06,34,9.80
2022,10,04,06,35,9.80
2022,10,04,06,36,9.80
2022,10,04,06,37,9.90
2022,10,04,06,38,9.90
2022,10,04,06,39,9.90
2022,10,04,06,40,10.00
2022,10,04,06,41,10.00
2022,10,04,06,42,10.10
2022,10,04,06,43,10.10
2022,10,04,06,44,10.10
2022,10,04,06,45,10.10
2022,10,04,06,46,10.10
2022,10,04,06,47,10.10
2022,10,04,06,48,10.20
2022,10,04,06,49,10.20
2022,10,04,06,50,10.20
2022,10,04,06,51,10.20
2022,10,04,06,52,10.20
2022,10,04,06,53,10.20
2022,10,04,06,54,10.20
2022,10,04,06,55,10.20
2022,10,04,06,56,10.20
2022,10,04,06,57,10.20
2022,10,04,06,58,10.20
2022,10,04,06,59,10.20
2022,10,04,07,00,10.20
2022,10,04,07,01,10.20
2022,10,04,07,02,10.20
2022,10,04,07,03,10.20
2022,10,04,07,04,10.10
2022,10,04,07,05,10.10
2022,10,04,07,06,10.10
2022,10,04,07,07,10.10
2022,10,04,07,08,10.10
2022,10,04,07,09,10.10
2022,10,04,07,10,10.00
2022,10,04,07,11,10.00
2022,10,04,07,12,10.00
2022,10,04,07,13,10.00
2022,10,04,07,14,10.00
2022,10,04,07,15,10.00
2022,10,04,07,16,9.90
2022,10,04,07,17,9.90
2022,10,04,07,18,9.90
2022,10,04,07,19,9.90
2022,10,04,07,20,9.90
2022,10,04,07,21,9.90
2022,10,04,07,22,9.90
2022,10,04,07,23,9.90
2022,10,04,07,24,9.80
2022,10,04,07,25,9.80
2022,10,04,07,26,9.80
2022,10,04,07,27,9.80
2022,10,04,07,28,9.80
2022,10,04,07,29,9.80
2022,10,04,07,30,9.80
2022,10,04,07,31,9.80
2022,10,04,07,32,9.80
2022,10,04,07,33,9.80
2022,10,04,07,34,9.80
2022,10,04,07,35,9.80
2022,10,04,07,36,9.80
2022,10,04,07,37,9.80
2022,10,04,07,38,9.80
2022,10,04,07,39,9.80
2022,10,04,07,40,9.80
2022,10,04,07,41,9.80
2022,10,04,07,42,9.80
2022,10,04,07,43,9.80
2022,10,04,07,44,9.80
2022,10,04,07,45,9.80
2022,10,04,07,46,9.80
2022,10,04,07,47,9.80
2022,10,04,07,48,9.80
2022,10,04,07,49,9.80
2022,10,04,07,50,9.80
2022,10,04,07,51,9.80
2022,10,04,07,52,9.80
2022,10,04,07,53,9.80
2022,10,04,07,54,9.90
2022,10,04,07,55,9.90
2022,10,04,07,56,9.90
2022,10,04,07,57,9.90
2022,10,04,07,58,9.90
2022,10,04,07,59,10.00
2022,10,04,08,00,10.00
2022,10,04,08,01,10.10
2022,10,04,08,02,10.10
2022,10,04,08,03,10.10
2022,10,04,08,04,10.10
2022,10,04,08,05,10.10
2022,10,04,08,06,10.10
2022,10,04,08,07,10.20
2022,10,04,08,08,10.20
2022,10,04,08,09,10.20
2022,10,04,08,10,10.30
2022,10,04,08,11,10.30
2022,10,04,08,12,10.30
2022,10,04,08,13,10.30
2022,10,04,08,14,10.40
2022,10,04,08,15,10.40
2022,10,04,08,16,10.40
2022,10,04,08,17,10.40
2022,10,04,08,18,10.50
2022,10,04,08,19,10.50
2022,10,04,08,20,10.50
2022,10,04,08,21,10.60
2022,10,04,08,22,10.60
2022,10,04,08,23,10.60
2022,10,04,08,24,10.60
2022,10,04,08,25,10.60
2022,10,04,08,26,10.60
2022,10,04,08,27,10.60
2022,10,04,08,28,10.70
2022,10,04,08,29,10.70
2022,10,04,08,30,10.70
2022,10,04,08,31,10.70
2022,10,04,08,32,10.80
2022,10,04,08,33,10.80
2022,10,04,08,34,10.80
2022,10,04,08,35,10.80
2022,10,04,08,36,10.80
2022,10,04,08,37,10.90
2022,10,04,08,38,10.90
2022,10,04,08,39,10.90
2022,10,04,08,40,11.00
2022,10,04,08,41,11.00
2022,10,04,08,42,11.10
2022,10,04,08,43,11.10
2022,10,04,08,44,11.20
2022,10,04,08,45,11.30
2022,10,04,08,46,11.30
2022,10,04,08,47,11.40
2022,10,04,08,48,11.40
2022,10,04,08,49,11.50
2022,10,04,08,50,11.50
2022,10,04,08,51,11.60
2022,10,04,08,52,11.60
2022,10,04,08,53,11.70
2022,10,04,08,54,11.80
2022,10,04,08,55,11.80
2022,10,04,08,56,11.90
2022,10,04,08,57,12.00
2022,10,04,08,58,12.10
2022,10,04,08,59,12.20
2022,10,04,09,00,12.20
2022,10,04,09,01,12.20
2022,10,04,09,02,12.20
2022,10,04,09,03,12.20
2022,10,04,09,04,12.20
2022,10,04,09,05,12.20
2022,10,04,09,06,12.20
2022,10,04,09,07,12.30
2022,10,04,09,08,12.30
2022,10,04,09,09,12.40
2022,10,04,09,10,12.40
2022,10,04,09,11,12.40
2022,10,04,09,12,12.50
2022,10,04,09,13,12.60
2022,10,04,09,14,12.60
2022,10,04,09,15,12.70
2022,10,04,09,16,12.70
2022,10,04,09,17,12.80
2022,10,04,09,18,12.90
2022,10,04,09,19,12.90
2022,10,04,09,20,13.00
2022,10,04,09,21,13.00
2022,10,04,09,22,13.00
2022,10,04,09,23,13.00
2022,10,04,09,24,13.10
2022,10,04,09,25,13.10
2022,10,04,09,26,13.20
2022,10,04,09,27,13.30
2022,10,04,09,28,13.30
2022,10,04,09,29,13.40
2022,10,04,09,30,13.40
2022,10,04,09,31,13.50
2022,10,04,09,32,13.60
2022,10,04,09,33,13.70
2022,10,04,09,34,13.70
2022,10,04,09,35,13.80
2022,10,04,09,36,13.90
2022,10,04,09,37,14.00
2022,10,04,09,38,14.00
2022,10,04,09,39,14.10
2022,10,04,09,40,14.20
2022,10,04,09,41,14.20
2022,10,04,09,42,14.30
2022,10,04,09,43,14.30
2022,10,04,09,44,14.30
2022,10,04,09,45,14.40
2022,10,04,09,46,14.50
2022,10,04,09,47,14.50
2022,10,04,09,48,14.70
2022,10,04,09,49,14.70
2022,10,04,09,50,14.80
2022,10,04,09,51,14.80
2022,10,04,09,52,14.80
2022,10,04,09,53,14.80
2022,10,04,09,54,14.80
2022,10,04,09,55,14.80
2022,10,04,09,56,14.80
2022,10,04,09,57,14.90
2022,10,04,09,58,14.90
2022,10,04,09,59,15.00
2022,10,04,10,00,15.10
2022,10,04,10,01,15.20
2022,10,04,10,02,15.20
2022,10,04,10,03,15.30
2022,10,04,10,04,15.30
2022,10,04,10,05,15.30
2022,10,04,10,06,15.40
2022,10,04,10,07,15.50
2022,10,04,10,08,15.50
2022,10,04,10,09,15.60
2022,10,04,10,10,15.60
2022,10,04,10,11,15.60
2022,10,04,10,12,15.60
2022,10,04,10,13,15.60
2022,10,04,10,14,15.60
2022,10,04,10,15,15.70
2022,10,04,10,16,15.70
2022,10,04,10,17,15.80
2022,10,04,10,18,15.80
2022,10,04,10,19,15.80
2022,10,04,10,20,15.80
2022,10,04,10,21,15.80
2022,10,04,10,22,15.80
2022,10,04,10,23,15.80
2022,10,04,10,24,15.90
2022,10,04,10,25,15.90
2022,10,04,10,26,15.90
2022,10,04,10,27,15.80
2022,10,04,10,28,15.80
2022,10,04,10,29,15.80
2022,10,04,10,30,15.80
2022,10,04,10,31,15.80
2022,10,04,10,32,15.80
2022,10,04,10,33,15.80
2022,10,04,10,34,15.80
2022,10,04,10,35,15.80
2022,10,04,10,36,15.80
2022,10,04,10,37,15.80
2022,10,04,10,38,15.80
2022,10,04,10,39,15.80
2022,10,04,10,40,15.80
2022,10,04,10,41,15.80
2022,10,04,10,42,15.90
2022,10,04,10,43,16.00
2022,10,04,10,44,16.00
2022,10,04,10,45,16.00
2022,10,04,10,46,16.00
2022,10,04,10,47,16.10
2022,10,04,10,48,16.10
2022,10,04,10,49,16.10
2022,10,04,10,50,16.10
2022,10,04,10,51,16.10
2022,10,04,10,52,16.10
2022,10,04,10,53,16.10
2022,10,04,10,54,16.20
2022,10,04,10,55,16.20
2022,10,04,10,56,16.20
2022,10,04,10,57,16.20
2022,10,04,10,58,16.10
2022,10,04,10,59,16.10
2022,10,04,11,00,16.20
2022,10,04,11,01,16.20
2022,10,04,11,02,16.30
2022,10,04,11,03,16.20
2022,10,04,11,04,16.20
2022,10,04,11,05,16.10
2022,10,04,11,06,16.00
2022,10,04,11,07,16.00
2022,10,04,11,08,15.90
2022,10,04,11,09,15.80
2022,10,04,11,10,15.80
2022,10,04,11,11,15.70
2022,10,04,11,12,15.50
2022,10,04,11,13,15.30
2022,10,04,11,14,15.20
2022,10,04,11,15,15.10
2022,10,04,11,16,14.90
2022,10,04,11,17,14.90
2022,10,04,11,18,14.80
2022,10,04,11,19,14.80
2022,10,04,11,20,14.70
2022,10,04,11,21,14.70
2022,10,04,11,22,14.80
2022,10,04,11,23,14.80
2022,10,04,11,24,14.90
2022,10,04,11,25,14.90
2022,10,04,11,26,15.00
2022,10,04,11,27,15.00
2022,10,04,11,28,15.10
2022,10,04,11,29,15.10
2022,10,04,11,30,15.20
2022,10,04,11,31,15.20
2022,10,04,11,32,15.20
2022,10,04,11,33,15.30
2022,10,04,11,34,15.30
2022,10,04,11,35,15.20
2022,10,04,11,36,15.20
2022,10,04,11,37,15.20
2022,10,04,11,38,15.30
2022,10,04,11,39,15.30
2022,10,04,11,40,15.30
2022,10,04,11,41,15.40
2022,10,04,11,42,15.40
2022,10,04,11,43,15.40
2022,10,04,11,44,15.40
2022,10,04,11,45,15.50
2022,10,04,11,46,15.50
2022,10,04,11,47,15.50
2022,10,04,11,48,15.40
2022,10,04,11,49,15.50
2022,10,04,11,50,15.50
2022,10,04,11,51,15.50
2022,10,04,11,52,15.50
2022,10,04,11,53,15.40
2022,10,04,11,54,15.40
2022,10,04,11,55,15.30
2022,10,04,11,56,15.30
2022,10,04,11,57,15.30
2022,10,04,11,58,15.30
2022,10,04,11,59,15.30
2022,10,04,12,00,15.30
2022,10,04,12,01,15.40
2022,10,04,12,02,15.40
2022,10,04,12,03,15.40
2022,10,04,12,04,15.40
2022,10,04,12,05,15.40
2022,10,04,12,06,15.40
2022,10,04,12,07,15.40
2022,10,04,12,08,15.50
2022,10,04,12,09,15.50
2022,10,04,12,10,15.50
2022,10,04,12,11,15.40
2022,10,04,12,12,15.40
2022,10,04,12,13,15.40
2022,10,04,12,14,15.40
2022,10,04,12,15,15.40
2022,10,04,12,16,15.30
2022,10,04,12,17,15.30
2022,10,04,12,18,15.30
2022,10,04,12,19,15.30
2022,10,04,12,20,15.20
2022,10,04,12,21,15.20
2022,10,04,12,22,15.20
2022,10,04,12,23,15.10
2022,10,04,12,24,15.10
2022,10,04,12,25,15.00
2022,10,04,12,26,15.00
2022,10,04,12,27,14.90
2022,10,04,12,28,14.90
2022,10,04,12,29,14.90
2022,10,04,12,30,14.90
2022,10,04,12,31,15.00
2022,10,04,12,32,15.10
2022,10,04,12,33,15.10
2022,10,04,12,34,15.10
2022,10,04,12,35,15.10
2022,10,04,12,36,15.10
2022,10,04,12,37,15.10
2022,10,04,12,38,15.00
2022,10,04,12,39,15.00
2022,10,04,12,40,15.00
2022,10,04,12,41,14.90
2022,10,04,12,42,14.80
2022,10,04,12,43,14.80
2022,10,04,12,44,14.80
2022,10,04,12,45,14.70
2022,10,04,12,46,14.70
2022,10,04,12,47,14.70
2022,10,04,12,48,14.70
2022,10,04,12,49,14.70
2022,10,04,12,50,14.70
2022,10,04,12,51,14.70
2022,10,04,12,52,14.70
2022,10,04,12,53,14.70
2022,10,04,12,54,14.80
2022,10,04,12,55,14.80
2022,10,04,12,56,14.80
2022,10,04,12,57,14.90
2022,10,04,12,58,15.00
2022,10,04,12,59,15.10
2022,10,04,13,00,15.10
2022,10,04,13,01,15.20
2022,10,04,13,02,15.20
2022,10,04,13,03,15.30
2022,10,04,13,04,15.30
2022,10,04,13,05,15.30
2022,10,04,13,06,15.30
2022,10,04,13,07,15.30
2022,10,04,13,08,15.20
2022,10,04,13,09,15.30
2022,10,04,13,10,15.20
2022,10,04,13,11,15.20
2022,10,04,13,12,15.20
2022,10,04,13,13,15.20
2022,10,04,13,14,15.20
2022,10,04,13,15,15.10
2022,10,04,13,16,15.10
2022,10,04,13,17,15.10
2022,10,04,13,18,15.10
2022,10,04,13,19,15.10
2022,10,04,13,20,15.00
2022,10,04,13,21,14.90
2022,10,04,13,22,14.90
2022,10,04,13,23,14.90
2022,10,04,13,24,14.90
2022,10,04,13,25,15.00
2022,10,04,13,26,14.90
2022,10,04,13,27,14.90
2022,10,04,13,28,14.90
2022,10,04,13,29,14.80
2022,10,04,13,30,14.80
2022,10,04,13,31,14.80
2022,10,04,13,32,14.90
2022,10,04,13,33,14.90
2022,10,04,13,34,14.90
2022,10,04,13,35,15.00
2022,10,04,13,36,15.00
2022,10,04,13,37,15.10
2022,10,04,13,38,15.10
2022,10,04,13,39,15.10
2022,10,04,13,40,15.10
2022,10,04,13,41,15.10
2022,10,04,13,42,15.10
2022,10,04,13,43,15.10
2022,10,04,13,44,15.10
2022,10,04,13,45,15.10
2022,10,04,13,46,15.10
2022,10,04,13,47,15.10
2022,10,04,13,48,15.20
2022,10,04,13,49,15.20
2022,10,04,13,50,15.30
2022,10,04,13,51,15.40
2022,10,04,13,52,15.40
2022,10,04,13,53,15.50
2022,10,04,13,54,15.50
2022,10,04,13,55,15.60
2022,10,04,13,56,15.60
2022,10,04,13,57,15.50
2022,10,04,13,58,15.40
2022,10,04,13,59,15.40
2022,10,04,14,00,15.40
2022,10,04,14,01,15.40
2022,10,04,14,02,15.40
2022,10,04,14,03,15.40
2022,10,04,14,04,15.40
2022,10,04,14,05,15.40
2022,10,04,14,06,15.40
2022,10,04,14,07,15.30
2022,10,04,14,08,15.30
2022,10,04,14,09,15.30
2022,10,04,14,10,15.30
2022,10,04,14,11,15.30
2022,10,04,14,12,15.30
2022,10,04,14,13,15.30
2022,10,04,14,14,15.30
2022,10,04,14,15,15.30
2022,10,04,14,16,15.30
2022,10,04,14,17,15.30
2022,10,04,14,18,15.30
2022,10,04,14,19,15.30
2022,10,04,14,20,15.30
2022,10,04,14,21,15.40
2022,10,04,14,22,15.40
2022,10,04,14,23,15.40
2022,10,04,14,24,15.40
2022,10,04,14,25,15.40
2022,10,04,14,26,15.40
2022,10,04,14,27,15.40
2022,10,04,14,28,15.40
2022,10,04,14,29,15.40
2022,10,04,14,30,15.40
2022,10,04,14,31,15.50
2022,10,04,14,32,15.60
2022,10,04,14,33,15.60
2022,10,04,14,34,15.70
2022,10,04,14,35,15.70
2022,10,04,14,36,15.70
2022,10,04,14,37,15.60
2022,10,04,14,38,15.60
2022,10,04,14,39,15.60
2022,10,04,14,40,15.60
2022,10,04,14,41,15.50
2022,10,04,14,42,15.50
2022,10,04,14,43,15.40
2022,10,04,14,44,15.30
2022,10,04,14,45,15.30
2022,10,04,14,46,15.20
2022,10,04,14,47,15.30
2022,10,04,14,48,15.30
2022,10,04,14,49,15.30
2022,10,04,14,50,15.30
2022,10,04,14,51,15.30
2022,10,04,14,52,15.40
2022,10,04,14,53,15.40
2022,10,04,14,54,15.40
2022,10,04,14,55,15.50
2022,10,04,14,56,15.60
2022,10,04,14,57,15.60
2022,10,04,14,58,15.50
2022,10,04,14,59,15.40
2022,10,04,15,00,15.50
2022,10,04,15,01,15.50
2022,10,04,15,02,15.50
2022,10,04,15,03,15.50
2022,10,04,15,04,15.60
2022,10,04,15,05,15.60
2022,10,04,15,06,15.60
2022,10,04,15,07,15.70
2022,10,04,15,08,15.70
2022,10,04,15,09,15.80
2022,10,04,15,10,15.80
2022,10,04,15,11,15.90
2022,10,04,15,12,15.90
2022,10,04,15,13,15.90
2022,10,04,15,14,15.90
2022,10,04,15,15,15.90
2022,10,04,15,16,15.90
2022,10,04,15,17,16.00
2022,10,04,15,18,16.10
2022,10,04,15,19,16.10
2022,10,04,15,20,16.10
2022,10,04,15,21,16.00
2022,10,04,15,22,16.00
2022,10,04,15,23,16.00
2022,10,04,15,24,16.00
2022,10,04,15,25,16.00
2022,10,04,15,26,16.00
2022,10,04,15,27,16.10
2022,10,04,15,28,16.10
2022,10,04,15,29,16.10
2022,10,04,15,30,16.00
2022,10,04,15,31,15.90
2022,10,04,15,32,15.90
2022,10,04,15,33,16.00
2022,10,04,15,34,16.00
2022,10,04,15,35,15.90
2022,10,04,15,36,15.90
2022,10,04,15,37,16.00
2022,10,04,15,38,16.00
2022,10,04,15,39,16.10
2022,10,04,15,40,16.00
2022,10,04,15,41,16.00
2022,10,04,15,42,16.00
2022,10,04,15,43,16.00
2022,10,04,15,44,16.10
2022,10,04,15,45,16.20
2022,10,04,15,46,16.20
2022,10,04,15,47,16.30
2022,10,04,15,48,16.40
2022,10,04,15,49,16.50
2022,10,04,15,50,16.60
2022,10,04,15,51,16.70
2022,10,04,15,52,16.80
2022,10,04,15,53,16.80
2022,10,04,15,54,16.90
2022,10,04,15,55,17.00
2022,10,04,15,56,17.00
2022,10,04,15,57,17.00
2022,10,04,15,58,17.00
2022,10,04,15,59,17.00
2022,10,04,16,00,17.00
2022,10,04,16,01,16.90
2022,10,04,16,02,16.80
2022,10,04,16,03,16.70
2022,10,04,16,04,16.60
2022,10,04,16,05,16.50
2022,10,04,16,06,16.50
2022,10,04,16,07,16.50
2022,10,04,16,08,16.50
2022,10,04,16,09,16.50
2022,10,04,16,10,16.50
2022,10,04,16,11,16.60
2022,10,04,16,12,16.60
2022,10,04,16,13,16.60
2022,10,04,16,14,16.60
2022,10,04,16,15,16.60
2022,10,04,16,16,16.70
2022,10,04,16,17,16.80
2022,10,04,16,18,16.80
2022,10,04,16,19,16.80
2022,10,04,16,20,16.80
2022,10,04,16,21,16.80
2022,10,04,16,22,16.80
2022,10,04,16,23,16.80
2022,10,04,16,24,16.80
2022,10,04,16,25,16.80
2022,10,04,16,26,16.80
2022,10,04,16,27,16.80
2022,10,04,16,28,16.80
2022,10,04,16,29,16.80
2022,10,04,16,30,16.70
2022,10,04,16,31,16.70
2022,10,04,16,32,16.70
2022,10,04,16,33,16.60
2022,10,04,16,34,16.60
2022,10,04,16,35,16.60
2022,10,04,16,36,16.60
2022,10,04,16,37,16.60
2022,10,04,16,38,16.60
2022,10,04,16,39,16.60
2022,10,04,16,40,16.70
2022,10,04,16,41,16.80
2022,10,04,16,42,16.80
2022,10,04,16,43,16.80
2022,10,04,16,44,16.80
2022,10,04,16,45,16.80
2022,10,04,16,46,16.70
2022,10,04,16,47,16.70
2022,10,04,16,48,16.70
2022,10,04,16,49,16.70
2022,10,04,16,50,16.70
2022,10,04,16,51,16.70
2022,10,04,16,52,16.70
2022,10,04,16,53,16.60
2022,10,04,16,54,16.60
2022,10,04,16,55,16.60
2022,10,04,16,56,16.60
2022,10,04,16,57,16.60
2022,10,04,16,58,16.50
2022,10,04,16,59,16.50
2022,10,04,17,00,16.40
2022,10,04,17,01,16.30
2022,10,04,17,02,16.30
2022,10,04,17,03,16.30
2022,10,04,17,04,16.30
2022,10,04,17,05,16.30
2022,10,04,17,06,16.30
2022,10,04,17,07,16.30
2022,10,04,17,08,16.30
2022,10,04,17,09,16.30
2022,10,04,17,10,16.20
2022,10,04,17,11,16.20
2022,10,04,17,12,16.20
2022,10,04,17,13,16.20
2022,10,04,17,14,16.20
2022,10,04,17,15,16.20
2022,10,04,17,16,16.20
2022,10,04,17,17,16.20
2022,10,04,17,18,16.20
2022,10,04,17,19,16.20
2022,10,04,17,20,16.20
2022,10,04,17,21,16.20
2022,10,04,17,22,16.20
2022,10,04,17,23,16.30
2022,10,04,17,24,16.30
2022,10,04,17,25,16.30
2022,10,04,17,26,16.40
2022,10,04,17,27,16.50
2022,10,04,17,28,16.50